Regional Weather Roundup
Issued by NWS Upton, NY

Home | Current Version | Previous Version | Text Only | Print | Product List | Glossary On
Versions: 1 2 3 4 5 6 7 8 9 10 11 12 13 14 15 16 17 18 19 20 21 22 23 24 25 26 27 28
000
ASUS41 KOKX 080808
RWROKX

REGIONAL WEATHER ROUNDUP
NATIONAL WEATHER SERVICE NEW YORK NY
300 AM EST THU DEC 08 2016

NOTE: "FAIR" INDICATES FEW OR NO CLOUDS BELOW 12,000 FEET WITH NO
SIGNIFICANT WEATHER AND/OR OBSTRUCTIONS TO VISIBILITY.

NYZ071-072-176-178-NJZ106-104-080900-
NEW YORK CITY METRO AREA

CITY           SKY/WX    TMP DP  RH WIND       PRES   REMARKS
Central Park   CLOUDY    41  31  67 VRB5      30.02R
Wall St Helipt CLOUDY    42  35  76 W6        30.02S
Bronx Bot Gard NOT AVBL
LaGuardia APRT CLOUDY    44  30  57 W8        30.00R
Kennedy INTL   PTCLDY    40  33  76 W6        30.01R
Breezy Point     N/A     41 N/A N/A W8          N/A
Newark/Liberty CLOUDY    38  33  82 W6        30.01R WCI  33
Teterboro      CLOUDY    35  31  85 CALM      30.00R
$$

NYZ177-179-078>081-080900-
LONG ISLAND NEW YORK

CITY           SKY/WX    TMP DP  RH WIND       PRES   REMARKS
Jones Beach      N/A     41 N/A N/A W8          N/A
Matinecock PT  NOT AVBL
Farmingdale    CLOUDY    34  32  92 CALM      30.00R
MacArthur/ISP  CLOUDY    32  31  96 CALM      29.99S FOG
Shirley        PTCLDY    31  31 100 CALM      30.00S FOG
Westhampton    CLEAR     29  26  89 CALM      30.00F
Southampton    NOT AVBL
Bridgehampton  NOT AVBL
East Hampton     N/A     30  30  98 CALM      29.98S
Montauk          N/A     35  33  92 CALM      29.98F
$$

NYZ052-065-067-080900-
HUDSON VALLEY

CITY           SKY/WX    TMP DP  RH WIND       PRES   REMARKS
White Plains   CLOUDY    36  33  89 W6        29.97S WCI  31
Newburgh       CLOUDY    32  32 100 CALM      29.98S
Montgomery     CLOUDY    32  31  96 S5        29.97S WCI  27
Poughkeepsie   CLOUDY    28  28 100 CALM      29.98S
Albany         FOG       34  33  96 S3        29.97F VSB 1/8
$$

NJZ001-105-106-008-010-013-015-019>022-104-080900-
NEW JERSEY

CITY           SKY/WX    TMP DP  RH WIND       PRES   REMARKS
Newark/Liberty CLOUDY    38  33  82 W6        30.01R WCI  33
Teterboro      CLOUDY    35  31  85 CALM      30.00R
Caldwell       CLOUDY    32  31  96 CALM      30.01R
Somerville     FOG       29  26  89 CALM      30.00S VSB 1/2
Linden           N/A     37  32  79 W5        30.01S WCI  34
Sussex         PTCLDY    30  30 100 CALM      29.99R
Andover          N/A     30  30 100 CALM      29.99S
Trenton        CLOUDY    30  27  88 SW3       30.01S
Millville      CLOUDY    27  27 100 CALM      30.04F FOG
Atlantic City  CLOUDY    30  28  92 W3        30.04R FOG
Wrightstown    CLOUDY    32  30  90 W3        30.00S
Toms River     NOT AVBL
Belmar         MOCLDY    33  31  92 SW6       30.02S WCI  28
$$

PAZ047>061-062-071-080900-
EASTERN PENNSYLVANIA

CITY           SKY/WX    TMP DP  RH WIND       PRES   REMARKS
Philadelphia   CLOUDY    35  29  78 SW7       30.04S WCI  29
Allentown      CLOUDY    33  27  78 SW6       30.00F WCI  28
Scranton       CLOUDY    37  26  64 SW8       29.97F WCI  31
$$

CTZ002-004>006-009-010-012-RIZ004-006-007-MAZ004-011-015-080900-
SOUTHERN NEW ENGLAND
 IN CT

CITY           SKY/WX    TMP DP  RH WIND       PRES   REMARKS
Bradley INTL   FOG       31  30  96 NW3       29.97F VSB 1
Hartford       CLEAR     32  32 100 S3        29.98F FOG
Danbury        CLEAR     29  27  92 CALM      29.99S
Wtrbury/Oxford MOCLDY    32  28  86 CALM      29.97F
Bridgeport     CLEAR     37  33  85 CALM      29.99
Meriden        FOG       32  30  92 CALM      29.98F VSB 1/4
New Haven      CLEAR     32  30  92 CALM      29.98F FOG
Chester          N/A     36  34  93 W3        29.97S
Groton         CLEAR     38  36  92 N3        29.97F
Wilimantic     FOG       34  33  96 CALM      29.97F VSB 1/4

 IN RI

CITY           SKY/WX    TMP DP  RH WIND       PRES   REMARKS
Providence     CLOUDY    36  33  89 W5        29.97F WCI  32
Block Island   PTCLDY    39  35  86 NW5       29.97F
Westerly       CLEAR     34  30  85 CALM      29.97F FOG
 IN MA

CITY           SKY/WX    TMP DP  RH WIND       PRES   REMARKS
Boston         CLOUDY    39  33  79 W9        29.97S WCI  33
Worcester      PTCLDY    33  30  88 W7        29.92F WCI  27
Westfield      PTCLDY    29  29 100 CALM      29.96F FOG
Provincetown   CLOUDY    41  34  76 W10       29.96F
Nantucket      CLOUDY    41  38  89 CALM      29.96F
$$

ANZ330-335-338-340-345-350-353-355-080900-
COASTAL MARINE OBSERVATIONS


STATION/POSITION TIME  SKY/WX   TEMP    WIND        PRES    VSBY  WAVE
                                AIR SEA DIR/SP/G                  HT/PER
                 (UTC)          (F)     (DEG/KT/KT) (MB)    (MI)  (FT/S)
NY HARB ENTRANCE 0750            46 52  270/ 14/ 16 1015.8          4/ 9
20 S FIRE ISLAND NOT AVBL
GREAT SOUTH BAY  0730            38 43                N/A
23 SSW MONTAUK P NOT AVBL
15 E BARNEGAT LI 0730               53                N/A           4/ 8
HUDSON CANYON    NOT AVBL
KINGS POINT      0742            43 48              1015.6
EXECUTION ROCKS  0745            44     260/  8/ 10   N/A
CENTRAL LI SOUND 0730            45 50  280/  6/ 10   N/A           0
EASTERN LI SOUND NOT AVBL
ROBBINS REEF     0742            40     250/  8/ 10 1016.3
$$


>>>>>>>>>>>>>>>>>>>>>>>>>>>> KEY <<<<<<<<<<<<<<<<<<<<<<<<<<<
>                                                          <
>     SKY/WX - Sky Condition/Present Weather               <
>     TMP    - Temperature in Fahrenheit                   <
>     DP     - Dew Point in Fahrenheit                     <
>     RH     - Relative Humidity in Percent                <
>     WIND   - Direction (from) and Speed in MPH           <
>     PRES   - Mean Sea Level Pressure (inches of Hg)      <
>     WCI    - Wind Chill Index                            <
>     VSB    - VISIBILITY IN MILES                         <
>     HX     - HEAT INDEX                                  <
>     TC     - TEMPERATURE IN CELSIUS                      <
>     VRB    - VARIABLE WIND DIRECTION                     <
>                                                          <
>>>>>>>>>>>>>>>>>>>>>>>>>>>> KEY <<<<<<<<<<<<<<<<<<<<<<<<<<<




USA.gov is the U.S. government's official web portal to all federal, state and local government web resources and services.